Regional Weather Roundup
Issued by NWS Albany, NY

Home | Current Version | Previous Version | Text Only | Print | Product List | Glossary On
Versions: 1 2 3 4 5 6 7 8 9 10 11 12 13 14 15 16 17 18 19 20 21 22 23 24 25 26 27 28 29 30 31 32 33 34 35 36 37 38 39 40 41 42 43 44 45 46 47 48 49 50
000
ASUS41 KALY 251510
RWRALY

NEW YORK STATE HOURLY WEATHER ROUNDUP
NATIONAL WEATHER SERVICE ALBANY NY
1100 AM EDT SAT MAR 25 2017

NOTE: "FAIR" INDICATES FEW OR NO CLOUDS BELOW 12,000 FEET WITH NO
SIGNIFICANT WEATHER AND/OR NO OBSTRUCTIONS TO VISIBILITY.

NYZ032-033-038>043-046>054-057>066-NYZ062>081-082-084-251600-
EAST


CITY           SKY/WX    TMP DP  RH WIND       PRES   REMARKS
ALBANY         LGT RAIN  37  31  78 N8        30.25R WCI  31
GLENS FALLS    LGT RAIN  36  32  85 N8        30.26R WCI  30
POUGHKEEPSIE   CLOUDY    44  36  73 NW3       30.20R
NEWBURGH       PTSUNNY   45  39  81 NE12      30.21R
MONTGOMERY     CLOUDY    45  37  73 N9        30.18R
WHITE PLAINS   LGT RAIN  50  40  68 NE3       30.15S
ISLIP          PTSUNNY   59  39  47 N5        30.16F
NEW YORK CITY  CLOUDY    53  36  52 NE9       30.16R
CENTRAL PARK   CLOUDY    58  39  49 VRB5      30.17F
$$

NYZ005>009-017-018-044>046-055-056-251600-
CENTRAL


CITY           SKY/WX    TMP DP  RH WIND       PRES   REMARKS
FULTON         LGT RAIN  35  32  88 N10       30.26S FOG     WCI  27
SYRACUSE       LGT RAIN  34  34 100 NW3       30.26R FOG
ROME           LGT RAIN  35  35 100 NW5       30.27R FOG     WCI  31
ELMIRA         CLOUDY    39  34  82 NE9       30.23R WCI  33
BINGHAMTON     FOG       37  37 100 N8        30.18R VSB 1/4 WCI  31
MONTICELLO     CLOUDY    43  39  87 CALM      30.17R
$$

NYZ026>034-041>043-087-251600-
NORTH


CITY           SKY/WX    TMP DP  RH WIND       PRES   REMARKS
WATERTOWN      CLOUDY    35  33  92 NE14      30.30R WCI  26
FORT DRUM      NOT AVBL
MASSENA        CLOUDY    36  31  82 N8        30.34R WCI  30
SARANAC LAKE   CLOUDY    32  29  88 NE9       30.22R WCI  24
PLATTSBURGH    CLOUDY    34  31  88 NE6       30.32R FOG     WCI  29
$$

NYZ001>004-010>016-019>021-085-251600-
WEST


CITY           SKY/WX    TMP DP  RH WIND       PRES   REMARKS
NIAGARA FALLS  CLOUDY    37  32  82 NE14      30.27R WCI  28
BUFFALO        LGT RAIN  35  32  88 NE14      30.26R FOG     WCI  26
DUNKIRK        LGT RAIN  36  35  96 N13       30.24R FOG     WCI  27
JAMESTOWN      CLOUDY    43  37  81 N7        30.16R
WELLSVILLE     CLOUDY    46  41  82 N8        30.17R HAZE
ROCHESTER      RAIN      36  33  89 NE15      30.28R WCI  27
PENN YAN       LGT RAIN  34  31  88 N7        30.26R FOG     WCI  28
$$

             KEY
       WCI = WIND CHILL INDEX
       VSB = VISIBILITY
       HX  = HEAT INDEX
$$



USA.gov is the U.S. government's official web portal to all federal, state and local government web resources and services.